Погода в Каменке

Россия / Тульская область     54°34′55″N   37°37′38″E
темп.,
°C
ветер,
м/с
пор.,
м/с
влажн.,
%
обл.,
%
осадки,
мм/ч
давл.,
гПа
погр.,
м
4 марта, чт
чт400:00−1зюз61293100 0.1 1011533
03:00−1зюз81692100 0.4 1008555
06:00−1зюз91889100 0.3 1005622
09:00−2з9158988 0.3 1004851
12:00−1з71293100 0.1 1002681
15:000зюз71097100 0.4 1001646
18:00−1зюз61096100 0.5 1001552
21:00−3с4897100 2.4 1002385
5 марта, пт
пт500:00−5сз2392100 0.2 100339
03:00−8ссз2395100 0.2 100531
06:00−9сз129438 0.0 100621
09:00−7зсз229422 0.0 100876
12:00−4зсз35905 0.0 1008475
15:00−3сз468147 0.1 1010911
18:00−7сз34840 0.0 101161
21:00−9сз23850 0.0 101421
6 марта, сб
сб600:00−11зсз22850 0.0 101521
03:00−11зсз22860 0.0 101621
06:00−12зсз22880 0.0 101621
09:00−10с239215 0.0 101791
12:00−7св3492100 0.3 1017340
15:00−7ссв3486100 0.5 1017524
18:00−11з128766 0.0 101721
21:00−12зюз348949 0.0 101842
7 марта, вс
вс700:00−12юз510880 0.0 1016182
03:00−10юз7158714 0.0 1013370
06:00−8юз9188297 0.0 1008712
09:00−6юз11188999 0.1 10041055
12:00−4юз121892100 0.9 9991199
15:00−2зюз121993100 2.1 9961297
18:00−4зсз81582100 2.8 9951189
21:00−9з497683 2.8 999142
8 марта, пн
пн800:00−8з589467 0.5 999389
03:00−8з7139483 0.8 998756
06:00−11з5119177 0.1 1000282
09:00−9сз6108988 0.3 1004873
12:00−9сз688496 0.0 1006782
15:00−8зсз577775 0.1 10091078
18:00−11зсз348984 0.0 101049
21:00−13сз479178 0.1 1013109